Location: Puketoi
(40.5833°S, 176.0167°E)
Time: 15:21:08
(UTC+00:00)

IRS-P3 Rocket - Pass Details

Date: 08 February 2023
Orbit: 793 x 843 km, 99.0° (Epoch: 22 March)

Event Time Altitude Azimuth Distance (km) Brightness Sun altitude
Exits shadow 15:20:13 34° 5° (N) 1,307 5.3 -21.9°
Maximum altitude 15:22:35 78° 284° (WNW) 830 4.5 -21.6°
Drops below altitude 10° 15:27:54 10° 197° (SSW) 2,399 7.4 -20.9°
Sets 15:30:15 0° 195° (SSW) 3,334 8.2 -20.5°
